Regional Weather Roundup
Issued by NWS Nashville, TN

Home | Current Version | Previous Version | Text Only | Print | Product List | Glossary On
Versions: 1 2 3 4 5 6 7 8 9 10 11 12 13 14 15 16 17 18 19 20 21 22 23 24 25 26 27 28 29 30 31 32 33 34 35 36 37 38 39 40 41 42 43 44 45 46 47 48 49 50
000
ASUS44 KOHX 242015
RWROHX
MIDDLE TENNESSEE HOURLY WEATHER ROUNDUP
NATIONAL WEATHER SERVICE NASHVILLE TN
300 PM CDT THU APR 24 2014

NOTE: "FAIR" INDICATES FEW OR NO CLOUDS BELOW 12,000 FEET WITH
NO SIGNIFICANT WEATHER AND/OR OBSTRUCTIONS TO VISIBILITY.

* THESE REPORTS ARE NOT UNDER NWS QUALITY CONTROL AND MAY NOT
  REPORT WEATHER SUCH AS PRECIPITATION AND FOG.


TNZ005>011-023>034-057-059-062>066-078-080-242100
...NORTHERN MIDDLE TENNESSEE...

CITY           SKY/WX    TMP DP  RH WIND       PRES   REMARKS
BAXTER*          N/A     82  48  30 W5          N/A
BRENTWOOD*       N/A     82  48  30 SW5         N/A
CASTALIAN SPRG   N/A     81  37  21 SW10        N/A
CLARKSVILLE    PTSUNNY   76  42  29 S13G18    29.85F
COLUMBIA       SUNNY     79  59  50 S13       29.86F
CROSSVILLE     PTSUNNY   73  32  22 S8        29.95F
GALLATIN         N/A     80  40  24 VRB6      29.89F
DICKSON        PTSUNNY   79  39  24 SW10      29.86F
FAIRFIELD GLAD   N/A     73  39  29 CALM        N/A
GOODLETTSVILLE   N/A     79  50  36 CALM        N/A
JOELTON*         N/A     79  45  29 NW3         N/A
LAFAYETTE*       N/A     79  39  24 S6          N/A
LIVINGSTON     PTSUNNY   76  33  20 SW10      29.92F
MONTEREY         N/A     75  36  23 CALM        N/A
MOUNT JULIET*    N/A     81  43  26 CALM        N/A
NASHVILLE      PTSUNNY   80  40  23 SW12G22   29.88F
OLD HICKORY*     N/A     81  50  34 MISG        N/A
PEGRAM*          N/A    N/A N/A N/A SW3         N/A
PORTLAND         N/A     75  37  25 S13       29.88F
SMYRNA         MOSUNNY   80  43  27 SW12G18   29.88F
SPARTA         SUNNY     79  37  22 SW9       29.91F
SPRINGFIELD*     N/A     79  50  36 MISG        N/A
WHITE BLUFF*     N/A     81  37  21 E6          N/A
$$
TNZ056-058-060-061-075>077-079-093>097-242100
...SOUTHERN MIDDLE TENNESSEE...

CITY           SKY/WX    TMP DP  RH WIND       PRES   REMARKS
BELLEVUE*        N/A     81  48  32 CALM        N/A
CULLEOKA*        N/A     81  50  34 SW2         N/A
EAGLEVILLE*      N/A    N/A N/A N/A S6G20       N/A
FAIRVIEW*        N/A     84  48  28 E1          N/A
FAYETTEVILLE   SUNNY     78  47  33 SW12      29.91F
HOHENWALD*       N/A     82  45  26 S1          N/A
LEWISBURG      MOSUNNY   81  51  35 SW9       29.89F
MANCHESTER*      N/A     77  50  38 NW7         N/A
MCMINNVILLE      N/A     78  42  27 S3        29.92F
MOUNT PLEASANT   N/A     77  54  44 SW2         N/A
MURFREESBORO   MOSUNNY   79  42  26 S10       29.89F
SHELBYVILLE    MOSUNNY   79  48  34 SW12      29.91F
SPRING HILL*     N/A     79  50  36 CALM        N/A
TULLAHOMA      SUNNY     79  45  29 S9        29.92F
WINCHESTER     SUNNY     79  46  31 W12       29.91F
$$


...KEY TO REMARKS...
VSB - VISIBILITY IN MILES
WCI - WIND CHILL INDEX
HX  - HEAT INDEX




USA.gov is the U.S. government's official web portal to all federal, state and local government web resources and services.